When you browse on this site, cookies collect data to enhance your experience and personalize the content and advertising you see.
Visit our Privacy Policy to learn more. By continuing to use the site, you agree to this use of cookies and data.
  • In Latvia
  • List of Countries
  • For 7 days
  • Water Temperature
  • Satellite Maps
  • Weather Map
  • Weather Widgets
  • user-avatar
    Login

    Hourly Weather Latina

    Today, 20 January, Sunday

    Time Temperature Precipitation Wind Pressure Humidity
    00:00 +7°C° 0 mm 2 mps 758 mmHg 85%
    01:00 +7°C° 0 mm 3 mps 758 mmHg 86%
    02:00 +7°C° 0.4 mm 2 mps 758 mmHg 87%
    03:00 +7°C° 0.4 mm 2 mps 757 mmHg 87%
    04:00 +7°C° 0.4 mm 2 mps 757 mmHg 87%
    05:00 +7°C° 1.5 mm 2 mps 757 mmHg 88%
    06:00 +7°C° 1.5 mm 2 mps 757 mmHg 88%
    07:00 +7°C° 1.5 mm 3 mps 757 mmHg 89%
    08:00 +7°C° 1.3 mm 3 mps 757 mmHg 88%
    09:00 +7°C° 1.3 mm 3 mps 757 mmHg 87%
    10:00 +7°C° 1.3 mm 3 mps 757 mmHg 87%
    11:00 +8°C° 0.5 mm 3 mps 757 mmHg 85%
    12:00 +8°C° 0.5 mm 3 mps 757 mmHg 83%
    13:00 +9°C° 0.5 mm 3 mps 757 mmHg 81%
    14:00 +9°C° 0.2 mm 3 mps 757 mmHg 81%
    15:00 +9°C° 0.2 mm 3 mps 757 mmHg 80%
    16:00 +9°C° 0.2 mm 3 mps 756 mmHg 80%
    17:00 +9°C° 0.1 mm 3 mps 757 mmHg 81%
    18:00 +8°C° 0.1 mm 3 mps 757 mmHg 82%
    19:00 +8°C° 0.1 mm 3 mps 757 mmHg 83%
    20:00 +7°C° 0 mm 4 mps 757 mmHg 82%
    21:00 +7°C° 0 mm 4 mps 757 mmHg 82%
    22:00 +7°C° 0 mm 4 mps 757 mmHg 82%
    23:00 +7°C° 0 mm 4 mps 758 mmHg 82%

    Tomorrow, 21 January, Monday

    Time Temperature Precipitation Wind Pressure Humidity
    00:00 +7°C° 0 mm 4 mps 758 mmHg 81%
    01:00 +7°C° 0 mm 4 mps 758 mmHg 81%
    02:00 +7°C° 0 mm 4 mps 758 mmHg 82%
    03:00 +6°C° 0 mm 4 mps 758 mmHg 83%
    04:00 +6°C° 0 mm 4 mps 757 mmHg 83%
    05:00 +6°C° 0 mm 4 mps 757 mmHg 84%
    06:00 +6°C° 0 mm 4 mps 757 mmHg 84%
    07:00 +6°C° 0 mm 4 mps 757 mmHg 84%
    08:00 +7°C° 0 mm 4 mps 757 mmHg 82%
    09:00 +8°C° 0 mm 4 mps 758 mmHg 80%
    10:00 +10°C° 0 mm 4 mps 758 mmHg 77%
    11:00 +10°C° 0.1 mm 4 mps 758 mmHg 75%
    12:00 +11°C° 0.1 mm 4 mps 757 mmHg 73%
    13:00 +12°C° 0.1 mm 4 mps 757 mmHg 72%
    14:00 +11°C° 0.1 mm 4 mps 757 mmHg 72%
    15:00 +11°C° 0.1 mm 3 mps 756 mmHg 73%
    16:00 +11°C° 0.1 mm 3 mps 756 mmHg 73%
    17:00 +11°C° 0 mm 3 mps 756 mmHg 75%
    18:00 +10°C° 0 mm 3 mps 756 mmHg 76%
    19:00 +9°C° 0 mm 3 mps 756 mmHg 78%
    20:00 +9°C° 0 mm 3 mps 756 mmHg 77%
    21:00 +9°C° 0 mm 3 mps 756 mmHg 77%
    22:00 +8°C° 0 mm 3 mps 756 mmHg 76%
    23:00 +8°C° 0.1 mm 3 mps 756 mmHg 75%

    Day after tomorrow, 22 January, Tuesday

    Time Temperature Precipitation Wind Pressure Humidity
    00:00 +8°C° 0.1 mm 3 mps 755 mmHg 74%
    01:00 +8°C° 0.1 mm 3 mps 755 mmHg 74%
    02:00 +8°C° 0.7 mm 2 mps 754 mmHg 75%
    03:00 +8°C° 0.7 mm 2 mps 754 mmHg 77%
    04:00 +7°C° 0.7 mm 2 mps 753 mmHg 79%
    05:00 +7°C° 2.5 mm 2 mps 753 mmHg 83%
    06:00 +7°C° 2.5 mm 2 mps 753 mmHg 86%
    07:00 +7°C° 2.5 mm 2 mps 752 mmHg 89%
    08:00 +7°C° 1.2 mm 2 mps 752 mmHg 88%
    09:00 +7°C° 1.2 mm 2 mps 752 mmHg 87%
    10:00 +7°C° 1.2 mm 2 mps 752 mmHg 86%
    11:00 +8°C° 0.6 mm 2 mps 751 mmHg 85%
    12:00 +8°C° 0.6 mm 2 mps 751 mmHg 84%
    13:00 +9°C° 0.6 mm 1 mps 750 mmHg 83%
    14:00 +9°C° 0.1 mm 2 mps 750 mmHg 81%
    15:00 +9°C° 0.1 mm 2 mps 749 mmHg 80%
    16:00 +9°C° 0.1 mm 2 mps 749 mmHg 78%
    17:00 +9°C° 0 mm 2 mps 749 mmHg 80%
    18:00 +8°C° 0 mm 3 mps 749 mmHg 81%
    19:00 +8°C° 0 mm 3 mps 748 mmHg 82%
    20:00 +7°C° 0 mm 3 mps 748 mmHg 83%
    21:00 +6°C° 0 mm 4 mps 748 mmHg 85%
    22:00 +6°C° 0 mm 4 mps 748 mmHg 86%
    23:00 +6°C° 0 mm 4 mps 748 mmHg 86%

    23 January, Wednesday

    Time Temperature Precipitation Wind Pressure Humidity
    00:00 +5°C° 0 mm 4 mps 747 mmHg 86%
    01:00 +5°C° 0 mm 4 mps 747 mmHg 86%
    02:00 +5°C° 0 mm 3 mps 747 mmHg 86%
    03:00 +5°C° 0 mm 3 mps 746 mmHg 86%
    04:00 +5°C° 0 mm 2 mps 746 mmHg 86%
    05:00 +5°C° 0 mm 2 mps 746 mmHg 87%
    06:00 +5°C° 0 mm 2 mps 746 mmHg 88%
    07:00 +4°C° 0 mm 2 mps 746 mmHg 89%
    08:00 +5°C° 0 mm 3 mps 745 mmHg 84%
    09:00 +6°C° 0 mm 4 mps 745 mmHg 78%
    10:00 +7°C° 0 mm 5 mps 745 mmHg 73%
    11:00 +7°C° 0.6 mm 5 mps 744 mmHg 75%
    12:00 +8°C° 0.6 mm 6 mps 743 mmHg 78%
    13:00 +8°C° 0.6 mm 7 mps 743 mmHg 81%
    14:00 +8°C° 1.7 mm 7 mps 743 mmHg 83%
    15:00 +6°C° 1.7 mm 7 mps 742 mmHg 85%
    16:00 +7°C° 1.7 mm 6 mps 742 mmHg 87%
    17:00 +7°C° 2.4 mm 5 mps 742 mmHg 87%
    18:00 +7°C° 2.4 mm 4 mps 743 mmHg 88%
    19:00 +8°C° 2.4 mm 3 mps 743 mmHg 89%
    20:00 +8°C° 1.5 mm 3 mps 743 mmHg 89%
    21:00 +7°C° 1.5 mm 4 mps 743 mmHg 90%
    22:00 +7°C° 1.5 mm 4 mps 743 mmHg 91%
    23:00 +7°C° 1.6 mm 4 mps 743 mmHg 91%

    24 January, Thursday

    Time Temperature Precipitation Wind Pressure Humidity
    00:00 +7°C° 1.6 mm 5 mps 743 mmHg 91%
    01:00 +7°C° 1.6 mm 5 mps 743 mmHg 91%
    02:00 +7°C° 1.1 mm 5 mps 743 mmHg 90%
    03:00 +6°C° 1.1 mm 5 mps 742 mmHg 89%
    04:00 +6°C° 1.1 mm 5 mps 742 mmHg 88%
    05:00 +6°C° 0.3 mm 4 mps 742 mmHg 85%
    06:00 +6°C° 0.3 mm 4 mps 742 mmHg 83%
    07:00 +6°C° 0.3 mm 4 mps 742 mmHg 81%
    08:00 +8°C° 0 mm 3 mps 742 mmHg 77%
    09:00 +9°C° 0 mm 3 mps 742 mmHg 74%
    10:00 +9°C° 0 mm 2 mps 742 mmHg 71%
    11:00 +10°C° 0.1 mm 2 mps 742 mmHg 70%
    12:00 +10°C° 0.1 mm 2 mps 742 mmHg 68%
    13:00 +12°C° 0.1 mm 2 mps 741 mmHg 67%
    14:00 +10°C° 0.8 mm 2 mps 741 mmHg 73%
    15:00 +9°C° 0.8 mm 2 mps 741 mmHg 79%
    16:00 +8°C° 0.8 mm 2 mps 741 mmHg 85%
    17:00 +8°C° 0.4 mm 2 mps 741 mmHg 85%
    18:00 +8°C° 0.4 mm 2 mps 742 mmHg 85%
    19:00 +7°C° 0.4 mm 2 mps 742 mmHg 86%
    20:00 +7°C° 0 mm 2 mps 742 mmHg 84%
    21:00 +7°C° 0 mm 3 mps 743 mmHg 82%
    22:00 +5°C° 0 mm 3 mps 743 mmHg 80%
    23:00 +6°C° 0 mm 4 mps 743 mmHg 80%

    25 January, Friday

    Time Temperature Precipitation Wind Pressure Humidity
    00:00 +6°C° 0 mm 4 mps 743 mmHg 79%
    01:00 +6°C° 0 mm 4 mps 744 mmHg 79%
    02:00 +6°C° 0 mm 4 mps 744 mmHg 79%
    03:00 +7°C° 0 mm 3 mps 744 mmHg 79%
    04:00 +7°C° 0 mm 3 mps 744 mmHg 79%
    05:00 +7°C° 0.1 mm 3 mps 744 mmHg 79%
    06:00 +7°C° 0.1 mm 2 mps 745 mmHg 79%
    07:00 +7°C° 0.1 mm 2 mps 745 mmHg 79%
    08:00 +7°C° 0 mm 2 mps 746 mmHg 76%
    09:00 +8°C° 0 mm 2 mps 747 mmHg 74%
    10:00 +9°C° 0 mm 2 mps 747 mmHg 72%
    11:00 +10°C° 0 mm 2 mps 748 mmHg 68%
    12:00 +12°C° 0 mm 2 mps 748 mmHg 63%
    13:00 +13°C° 0 mm 2 mps 748 mmHg 59%
    14:00 +12°C° 0 mm 2 mps 749 mmHg 61%
    15:00 +12°C° 0 mm 1 mps 749 mmHg 62%
    16:00 +12°C° 0 mm 1 mps 750 mmHg 64%
    17:00 +11°C° 0 mm 1 mps 750 mmHg 67%
    18:00 +10°C° 0 mm 1 mps 751 mmHg 70%
    19:00 +9°C° 0 mm 1 mps 752 mmHg 72%
    20:00 +7°C° 0 mm 2 mps 752 mmHg 72%
    21:00 +7°C° 0 mm 2 mps 753 mmHg 73%
    22:00 +6°C° 0 mm 2 mps 754 mmHg 73%
    23:00 +6°C° 0 mm 2 mps 754 mmHg 72%
    Show more